GW1238 Weather Reports


time (UTC)temp
F
wind
direction
speed
knots
gust
knots
rain 1hr
in
rain 24hr
in
rain mn
in
humidity
%
barometer
mb
20260904005445 82 346 0.9 1.7 0.00 0.00 0.00 83 1018.5
20260904004945 82 336 1.7 1.7 0.00 0.00 0.00 83 1018.4
20260904004441 83 341 0.9 1.7 0.00 0.00 0.00 82 1018.7
20260904003941 83 323 0.9 0.9 0.00 0.00 0.00 82 1018.4
20260904003437 83 354 0.9 1.7 0.00 0.00 0.00 82 1018.5
20260904002932 83 339 1.7 1.7 0.00 0.00 0.00 82 1018.2
20260904002429 83 346 1.7 2.6 0.00 0.00 0.00 82 1018.1
20260904001927 83 338 0.9 1.7 0.00 0.00 0.00 83 1018.3
20260904001423 83 339 1.7 1.7 0.00 0.00 0.00 82 1018.1
20260904000918 84 321 0.9 1.7 0.00 0.00 0.00 81 1018.1
20260904000418 84 346 0.9 0.9 0.00 0.00 0.00 82 1017.9
20260903235912 84 339 0.9 1.7 0.00 0.00 0.00 82 1017.8
20260903235409 84 345 1.7 1.7 0.00 0.00 0.00 83 1017.7
20260903234908 84 336 1.7 1.7 0.00 0.00 0.00 82 1017.8
20260903234404 84 330 1.7 2.6 0.00 0.00 0.00 82 1017.9
20260903233900 85 335 0.9 1.7 0.00 0.00 0.00 81 1017.8
20260903233355 85 327 0.9 1.7 0.00 0.00 0.00 82 1017.7
20260903232854 85 342 0.9 1.7 0.00 0.00 0.00 81 1017.5
20260903232351 85 340 0.9 1.7 0.00 0.00 0.00 81 1017.6
20260903231849 85 338 1.7 1.7 0.00 0.00 0.00 81 1017.6
20260903231345 85 334 1.7 1.7 0.00 0.00 0.00 80 1017.8
20260903230840 86 330 0.9 1.7 0.00 0.00 0.00 80 1017.7
20260903230336 86 345 0.9 1.7 0.00 0.00 0.00 80 1017.7
20260903225832 86 339 0.9 1.7 0.00 0.00 0.00 81 1017.6
20260903225327 86 341 1.7 1.7 0.00 0.00 0.00 80 1017.6
20260903224824 86 338 1.7 1.7 0.00 0.00 0.00 80 1017.7
20260903224319 87 335 1.7 1.7 0.00 0.00 0.00 79 1017.5
20260903223815 87 336 1.7 1.7 0.00 0.00 0.00 79 1017.7
20260903223314 87 344 1.7 1.7 0.00 0.00 0.00 79 1017.8
20260903222809 87 339 1.7 1.7 0.00 0.00 0.00 78 1017.8
20260903222308 88 341 1.7 1.7 0.00 0.00 0.00 77 1017.8
20260903221803 88 341 1.7 1.7 0.00 0.00 0.00 75 1017.6
20260903221302 88 336 0.9 1.7 0.00 0.00 0.00 73 1017.6
20260903220800 88 343 0.9 1.7 0.00 0.00 0.00 74 1017.5
20260903220255 89 340 0.9 1.7 0.00 0.00 0.00 73 1017.7
20260903215753 89 335 1.7 2.6 0.00 0.00 0.00 73 1017.7
20260903215249 89 333 0.9 1.7 0.00 0.00 0.00 73 1017.6
20260903214747 89 327 0.9 1.7 0.00 0.00 0.00 70 1017.6
20260903214244 89 333 1.7 1.7 0.00 0.00 0.00 69 1017.7
20260903213737 89 338 1.7 1.7 0.00 0.00 0.00 68 1017.8
20260903213234 91 327 1.7 1.7 0.00 0.00 0.00 68 1017.7
20260903212730 92 342 0.9 1.7 0.00 0.00 0.00 66 1017.8
20260903212226 92 128 0.0 0.9 0.00 0.00 0.00 71 1017.7
20260903211725 93 136 0.9 1.7 0.00 0.00 0.00 69 1017.8
20260903211221 93 139 0.9 1.7 0.00 0.00 0.00 63 1017.9
20260903210718 93 132 1.7 2.6 0.00 0.00 0.00 65 1017.8
20260903210213 94 147 2.6 2.6 0.00 0.00 0.00 60 1018.0
20260903205712 94 166 1.7 2.6 0.00 0.00 0.00 58 1018.0
20260903205211 94 140 1.7 2.6 0.00 0.00 0.00 59 1018.0
20260903204707 94 160 3.5 3.5 0.00 0.00 0.00 61 1018.1
20260903204203 95 134 0.9 1.7 0.00 0.00 0.00 54 1018.1
20260903203658 96 142 0.9 1.7 0.00 0.00 0.00 56 1017.9
20260903203154 99 178 0.9 1.7 0.00 0.00 0.00 50 1018.1
20260903202648 99 184 0.0 0.9 0.00 0.00 0.00 54 1018.1
20260903202144 98 147 0.0 0.0 0.00 0.00 0.00 54 1018.1
20260903201638 96 127 0.9 0.9 0.00 0.00 0.00 57 1018.1
20260903201137 96 137 0.0 0.0 0.00 0.00 0.00 56 1018.2
20260903200632 94 97 0.9 0.9 0.00 0.00 0.00 57 1018.3
20260903200128 94 115 0.0 2.6 0.00 0.00 0.00 57 1018.4
20260903195624 94 95 1.7 2.6 0.00 0.00 0.00 59 1018.4
20260903195119 94 89 2.6 2.6 0.00 0.00 0.00 60 1018.7
20260903194614 94 99 2.6 2.6 0.00 0.00 0.00 56 1018.9
20260903194114 95 85 2.6 2.6 0.00 0.00 0.00 55 1018.8
20260903193610 95 116 2.6 7.0 0.00 0.00 0.00 54 1018.7
20260903193106 95 120 1.7 2.6 0.00 0.00 0.00 55 1018.9
20260903192602 95 129 0.9 2.6 0.00 0.00 0.00 56 1018.7
20260903192057 100 142 0.9 1.7 0.00 0.00 0.00 51 1019.0
20260903191553 98 136 0.9 0.9 0.00 0.00 0.00 52 1018.9
20260903191048 96 127 0.9 1.7 0.00 0.00 0.00 55 1019.1
20260903190542 97 119 1.7 1.7 0.00 0.00 0.00 58 1019.1
20260903190041 96 132 0.0 0.9 0.00 0.00 0.00 52 1019.2
20260903185536 95 108 0.9 1.7 0.00 0.00 0.00 54 1019.2
20260903185032 95 127 0.0 0.9 0.00 0.00 0.00 55 1019.3
20260903184528 95 128 0.9 1.7 0.00 0.00 0.00 56 1019.3
20260903184023 97 125 0.9 0.9 0.00 0.00 0.00 51 1019.3
20260903183522 101 154 0.0 0.0 0.00 0.00 0.00 50 1019.5
20260903183017 100 157 0.0 0.0 0.00 0.00 0.00 52 1019.5
20260903182516 99 158 0.0 0.0 0.00 0.00 0.00 54 1019.6
20260903182013 95 142 0.0 0.9 0.00 0.00 0.00 55 1019.8
20260903181511 94 146 0.0 0.9 0.00 0.00 0.00 58 1019.8
20260903181011 94 141 0.0 0.0 0.00 0.00 0.00 60 1019.8
20260903180507 93 131 0.9 1.7 0.00 0.00 0.00 60 1019.8
20260903180005 93 148 0.9 0.9 0.00 0.00 0.00 57 1020.1
20260903175505 92 125 0.9 0.9 0.00 0.00 0.00 62 1020.0
20260903175004 92 122 0.9 1.7 0.00 0.00 0.00 65 1020.2
20260903174459 91 109 1.7 1.7 0.00 0.00 0.00 67 1020.0
20260903173954 91 107 1.7 2.6 0.00 0.00 0.00 68 1020.1
20260903173449 91 115 0.9 1.7 0.00 0.00 0.00 68 1020.2
20260903172945 91 119 0.9 1.7 0.00 0.00 0.00 67 1020.0
20260903172440 91 117 0.9 0.9 0.00 0.00 0.00 67 1020.1
20260903171935 91 116 0.9 0.9 0.00 0.00 0.00 70 1020.4
20260903171430 90 119 0.9 1.7 0.00 0.00 0.00 68 1020.5
20260903170930 90 101 1.7 1.7 0.00 0.00 0.00 70 1020.5
20260903170425 90 110 1.7 1.7 0.00 0.00 0.00 68 1020.6
20260903165924 90 113 0.9 1.7 0.00 0.00 0.00 72 1020.7
20260903165419 89 104 1.7 2.6 0.00 0.00 0.00 71 1021.0
20260903164918 89 103 1.7 2.6 0.00 0.00 0.00 72 1020.9
20260903164414 89 105 1.7 2.6 0.00 0.00 0.00 71 1020.9
20260903163913 89 115 1.7 1.7 0.00 0.00 0.00 70 1021.0
20260903163410 89 102 1.7 2.6 0.00 0.00 0.00 75 1021.1
20260903162906 88 107 1.7 1.7 0.00 0.00 0.00 72 1020.8
20260903162402 88 99 1.7 2.6 0.00 0.00 0.00 73 1021.1
20260903161857 88 115 1.7 2.6 0.00 0.00 0.00 74 1021.0
20260903161352 88 116 1.7 1.7 0.00 0.00 0.00 76 1021.2
20260903160848 87 116 1.7 2.6 0.00 0.00 0.00 73 1021.1
20260903160347 87 130 1.7 1.7 0.00 0.00 0.00 76 1020.9
20260903155845 87 125 1.7 1.7 0.00 0.00 0.00 74 1021.2
20260903155341 87 115 1.7 2.6 0.00 0.00 0.00 75 1021.1
20260903154836 87 123 1.7 1.7 0.00 0.00 0.00 75 1021.1
20260903154332 87 124 1.7 1.7 0.00 0.00 0.00 77 1021.1
20260903153827 87 132 1.7 2.6 0.00 0.00 0.00 76 1021.2
20260903153323 87 123 1.7 1.7 0.00 0.00 0.00 74 1021.2
20260903152819 87 121 0.9 1.7 0.00 0.00 0.00 74 1021.4
20260903152315 87 116 0.9 1.7 0.00 0.00 0.00 77 1021.2
20260903151810 87 124 0.0 0.9 0.00 0.00 0.00 77 1021.4
20260903151306 86 117 0.9 1.7 0.00 0.00 0.00 79 1021.1
20260903150805 85 113 1.7 1.7 0.00 0.00 0.00 78 1021.2
20260903150259 85 115 1.7 1.7 0.00 0.00 0.00 78 1021.2
20260903145755 85 107 0.9 1.7 0.00 0.00 0.00 79 1021.2
20260903145250 85 112 0.9 1.7 0.00 0.00 0.00 79 1021.3
20260903144748 85 114 1.7 1.7 0.00 0.00 0.00 80 1021.5
20260903144244 84 113 1.7 2.6 0.00 0.00 0.00 80 1021.4
20260903143740 84 110 1.7 1.7 0.00 0.00 0.00 80 1021.4
20260903143236 84 106 1.7 2.6 0.00 0.00 0.00 81 1021.4
20260903142732 84 112 1.7 2.6 0.00 0.00 0.00 82 1021.3
20260903142228 84 106 1.7 2.6 0.00 0.00 0.00 82 1021.4
20260903141723 83 104 1.7 2.6 0.00 0.00 0.00 82 1021.5
20260903141219 83 115 1.7 2.6 0.00 0.00 0.00 82 1021.4
20260903140714 83 98 2.6 2.6 0.00 0.00 0.00 82 1021.5
20260903140214 83 91 3.5 3.5 0.00 0.00 0.00 84 1021.7
20260903135710 83 107 2.6 3.5 0.00 0.00 0.00 87 1021.4
20260903135206 82 99 1.7 3.5 0.00 0.00 0.00 84 1021.2
20260903134704 82 104 2.6 3.5 0.00 0.00 0.00 86 1021.4
20260903134200 82 100 2.6 3.5 0.00 0.00 0.00 86 1021.7
20260903133658 82 107 2.6 3.5 0.00 0.00 0.00 88 1021.4
20260903133154 82 100 2.6 3.5 0.00 0.00 0.00 88 1021.5
20260903132654 82 109 2.6 2.6 0.00 0.00 0.00 85 1021.3
20260903132149 82 107 2.6 3.5 0.00 0.00 0.00 86 1021.6
20260903131644 82 105 1.7 3.5 0.00 0.00 0.00 86 1021.6
20260903131143 82 119 0.0 2.6 0.00 0.00 0.00 86 1021.5
20260903130638 82 94 0.9 3.5 0.00 0.00 0.00 85 1021.5
20260903130137 81 56 0.9 2.6 0.00 0.00 0.00 86 1021.5
20260903125635 81 93 1.7 2.6 0.00 0.00 0.00 86 1021.3
20260903125132 81 101 1.7 2.6 0.00 0.00 0.00 87 1021.4
20260903124631 81 86 1.7 2.6 0.00 0.00 0.00 87 1021.5
20260903124125 80 53 0.0 0.0 0.00 0.00 0.00 88 1021.6
20260903123626 79 76 0.0 0.9 0.00 0.00 0.00 89 1021.4
20260903123125 78 343 0.9 1.7 0.00 0.00 0.00 90 1021.6
20260903122624 78 345 0.9 1.7 0.00 0.00 0.00 92 1021.7
20260903122118 76 343 0.9 1.7 0.00 0.00 0.00 94 1021.6
20260903121617 76 0 0.9 1.7 0.00 0.00 0.00 94 1021.6
20260903121113 76 338 1.7 2.6 0.00 0.00 0.00 94 1021.5
20260903120612 75 332 0.9 1.7 0.00 0.00 0.00 95 1021.3
20260903120107 75 330 0.9 1.7 0.00 0.00 0.00 95 1021.3
20260903115605 75 338 0.9 1.7 0.00 0.00 0.00 96 1021.2
20260903115100 74 324 1.7 2.6 0.00 0.00 0.00 96 1021.3
20260903114555 74 335 1.7 1.7 0.00 0.00 0.00 96 1020.9
20260903114051 74 340 1.7 1.7 0.00 0.00 0.00 96 1021.1
20260903113547 74 341 1.7 1.7 0.00 0.00 0.00 96 1021.0
20260903113043 74 332 1.7 1.7 0.00 0.00 0.00 96 1020.8
20260903112538 74 343 0.9 2.6 0.00 0.00 0.00 96 1021.1
20260903112033 74 336 1.7 1.7 0.00 0.00 0.00 96 1020.8
20260903111532 74 331 1.7 1.7 0.00 0.00 0.00 96 1020.7
20260903111028 74 335 1.7 1.7 0.00 0.00 0.00 96 1020.8
20260903110524 74 348 1.7 1.7 0.00 0.00 0.00 96 1020.7
20260903110024 74 338 1.7 1.7 0.00 0.00 0.00 96 1020.6
20260903105519 74 324 1.7 1.7 0.00 0.00 0.00 96 1020.6
20260903105014 74 11 0.9 1.7 0.00 0.00 0.00 96 1020.6
20260903104513 74 348 1.7 1.7 0.00 0.00 0.00 96 1020.5
20260903104009 75 338 1.7 1.7 0.00 0.00 0.00 96 1020.6
20260903103505 74 339 1.7 1.7 0.00 0.00 0.00 96 1020.6
20260903103001 74 330 1.7 1.7 0.00 0.00 0.00 96 1020.6
20260903102456 74 334 1.7 1.7 0.00 0.00 0.00 96 1020.6
20260903101954 74 338 1.7 1.7 0.00 0.00 0.00 96 1020.5
20260903101449 74 342 1.7 1.7 0.00 0.00 0.00 96 1020.4
20260903100945 74 335 1.7 1.7 0.00 0.00 0.00 96 1020.3
20260903100440 75 329 1.7 1.7 0.00 0.00 0.00 96 1020.6
20260903095937 75 332 0.9 1.7 0.00 0.00 0.00 97 1020.5
20260903095432 75 342 1.7 1.7 0.00 0.00 0.00 97 1020.5
20260903094927 75 332 0.9 1.7 0.00 0.00 0.00 96 1020.3
20260903094426 75 328 0.9 1.7 0.00 0.00 0.00 96 1020.4
20260903093924 75 335 1.7 1.7 0.00 0.00 0.00 96 1020.6
20260903093424 75 336 1.7 2.6 0.00 0.00 0.00 96 1020.6
20260903092919 75 343 0.9 1.7 0.00 0.00 0.00 95 1020.3
20260903092414 75 336 1.7 1.7 0.00 0.00 0.00 95 1020.5
20260903091913 75 337 1.7 1.7 0.00 0.00 0.00 95 1020.5
20260903091411 75 338 1.7 1.7 0.00 0.00 0.00 94 1020.3
20260903090912 75 341 1.7 1.7 0.00 0.00 0.00 94 1020.5
20260903090407 75 328 1.7 1.7 0.00 0.00 0.00 94 1020.2
20260903085906 75 331 1.7 1.7 0.00 0.00 0.00 94 1020.4
20260903085404 75 332 1.7 1.7 0.00 0.00 0.00 94 1020.3
20260903084904 75 341 1.7 1.7 0.00 0.00 0.00 94 1020.3
20260903084403 76 347 0.9 1.7 0.00 0.00 0.00 94 1020.3
20260903083858 75 334 1.7 1.7 0.00 0.00 0.00 94 1020.2
20260903083354 75 329 1.7 2.6 0.00 0.00 0.00 93 1020.4
20260903082853 75 337 1.7 1.7 0.00 0.00 0.00 93 1020.4
20260903082348 75 342 1.7 1.7 0.00 0.00 0.00 93 1020.5
20260903081843 75 333 1.7 2.6 0.00 0.00 0.00 93 1020.3
20260903081338 76 330 1.7 1.7 0.00 0.00 0.00 93 1020.2
20260903080835 76 337 1.7 2.6 0.00 0.00 0.00 93 1020.1
20260903080332 76 330 1.7 1.7 0.00 0.00 0.00 93 1020.1
20260903075831 76 335 1.7 1.7 0.00 0.00 0.00 93 1020.2
20260903075326 76 336 1.7 1.7 0.00 0.00 0.00 93 1020.4
20260903074821 76 338 1.7 1.7 0.00 0.00 0.00 92 1020.2
20260903074321 76 334 1.7 1.7 0.00 0.00 0.00 93 1020.2
20260903073817 76 324 1.7 1.7 0.00 0.00 0.00 92 1020.1
20260903073312 76 347 1.7 1.7 0.00 0.00 0.00 92 1019.9
20260903072808 76 340 1.7 1.7 0.00 0.00 0.00 92 1020.2
20260903072306 76 335 1.7 1.7 0.00 0.00 0.00 92 1020.3
20260903071801 76 337 1.7 1.7 0.00 0.00 0.00 92 1020.1
20260903071256 76 346 1.7 1.7 0.00 0.00 0.00 92 1020.1
20260903070755 76 329 1.7 1.7 0.00 0.00 0.00 91 1020.1
20260903070251 76 343 1.7 2.6 0.00 0.00 0.00 91 1020.0
20260903065746 76 337 1.7 1.7 0.00 0.00 0.00 91 1020.0
20260903065246 76 341 1.7 1.7 0.00 0.00 0.00 91 1020.1
20260903064744 76 334 1.7 1.7 0.00 0.00 0.00 91 1019.9
20260903064240 76 341 1.7 1.7 0.00 0.00 0.00 91 1020.1
20260903063737 76 343 1.7 1.7 0.00 0.00 0.00 91 1020.2
20260903063231 77 335 1.7 2.6 0.00 0.00 0.00 91 1020.3
20260903062727 76 339 1.7 1.7 0.00 0.00 0.00 91 1020.2
20260903062226 77 341 1.7 1.7 0.00 0.00 0.00 91 1020.0
20260903061723 77 340 1.7 1.7 0.00 0.00 0.00 90 1020.1
20260903061221 77 341 0.9 1.7 0.00 0.00 0.00 90 1020.2
20260903060718 77 330 1.7 1.7 0.00 0.00 0.00 90 1020.3
20260903060217 77 342 1.7 1.7 0.00 0.00 0.00 90 1020.3
20260903055715 77 348 0.9 1.7 0.00 0.00 0.00 89 1020.3
20260903055214 77 336 1.7 1.7 0.00 0.00 0.00 89 1020.3
20260903054708 77 335 1.7 1.7 0.00 0.00 0.00 89 1020.3
20260903054204 77 342 1.7 1.7 0.00 0.00 0.00 89 1020.3
20260903053701 77 337 1.7 1.7 0.00 0.00 0.00 89 1020.3
20260903053155 77 338 1.7 1.7 0.00 0.00 0.00 88 1020.2
20260903052651 78 336 1.7 2.6 0.00 0.00 0.00 89 1020.2
20260903052147 77 327 1.7 1.7 0.00 0.00 0.00 88 1020.3
20260903051641 78 345 0.9 1.7 0.00 0.00 0.00 89 1020.4
20260903051137 78 352 0.9 1.7 0.00 0.00 0.00 88 1020.5
20260903050637 78 341 1.7 1.7 0.00 0.00 0.00 88 1020.3
20260903050126 78 341 1.7 2.6 0.00 0.00 0.00 88 1020.3
20260903045625 78 341 1.7 1.7 0.00 0.00 0.00 88 1020.3
20260903045122 78 336 1.7 2.6 0.00 0.00 0.00 88 1020.2
20260903044618 78 331 1.7 2.6 0.00 0.00 0.00 88 1020.4
20260903044113 78 336 1.7 1.7 0.00 0.00 0.00 88 1020.3
20260903043609 78 341 1.7 1.7 0.00 0.00 0.00 88 1020.3
20260903043109 78 337 1.7 2.6 0.00 0.00 0.00 87 1020.3
20260903042603 78 342 1.7 1.7 0.00 0.00 0.00 87 1020.4
20260903042059 78 358 1.7 1.7 0.00 0.00 0.00 87 1020.2
20260903041556 78 343 1.7 1.7 0.00 0.00 0.00 87 1020.2
20260903041055 78 333 1.7 1.7 0.00 0.00 0.00 87 1020.3
20260903040554 78 340 1.7 1.7 0.00 0.00 0.00 86 1020.3
20260903040051 78 335 1.7 1.7 0.00 0.00 0.00 86 1020.3
20260903035546 79 345 1.7 1.7 0.00 0.00 0.00 87 1020.4
20260903035042 79 343 1.7 2.6 0.00 0.00 0.00 86 1020.5
20260903034537 79 341 1.7 1.7 0.00 0.00 0.00 86 1020.4
20260903034032 79 341 1.7 1.7 0.00 0.00 0.00 86 1020.4
20260903033527 79 337 1.7 1.7 0.00 0.00 0.00 86 1020.3
20260903033022 79 342 0.9 2.6 0.00 0.00 0.00 86 1020.4
20260903032518 79 335 0.9 1.7 0.00 0.00 0.00 86 1020.4
20260903032013 79 324 1.7 1.7 0.00 0.00 0.00 85 1020.5
20260903031513 79 330 1.7 1.7 0.00 0.00 0.00 85 1020.5
20260903031008 79 341 1.7 1.7 0.00 0.00 0.00 85 1020.6
20260903030504 80 341 1.7 1.7 0.00 0.00 0.00 85 1020.4
20260903025959 80 339 1.7 1.7 0.00 0.00 0.00 84 1020.4
20260903025455 80 335 1.7 1.7 0.00 0.00 0.00 84 1020.5
20260903024950 80 338 1.7 1.7 0.00 0.00 0.00 84 1020.2
20260903024449 80 339 1.7 1.7 0.00 0.00 0.00 84 1020.3
20260903023944 80 334 1.7 1.7 0.00 0.00 0.00 83 1020.1
20260903023439 80 355 0.9 1.7 0.00 0.00 0.00 83 1020.2
20260903022935 80 336 1.7 1.7 0.00 0.00 0.00 83 1020.3
20260903022434 81 340 1.7 1.7 0.00 0.00 0.00 83 1020.2
20260903021932 80 346 1.7 2.6 0.00 0.00 0.00 82 1020.2
20260903021428 81 341 1.7 1.7 0.00 0.00 0.00 82 1020.2
20260903020922 81 338 0.9 2.6 0.00 0.00 0.00 82 1020.3
20260903020418 81 333 0.9 1.7 0.00 0.00 0.00 81 1020.2
20260903015912 81 340 1.7 1.7 0.00 0.00 0.00 80 1020.2
20260903015408 82 349 0.9 1.7 0.00 0.00 0.00 81 1020.2
20260903014903 82 345 1.7 1.7 0.00 0.00 0.00 80 1020.1
20260903014357 82 336 1.7 1.7 0.00 0.00 0.00 80 1020.3
20260903013853 82 343 1.7 1.7 0.00 0.00 0.00 80 1020.1
20260903013352 82 331 1.7 1.7 0.00 0.00 0.00 80 1020.0
20260903012851 82 341 1.7 1.7 0.00 0.00 0.00 80 1020.0
20260903012345 82 342 0.9 1.7 0.00 0.00 0.00 80 1020.0
20260903011844 82 332 0.9 1.7 0.00 0.00 0.00 79 1019.9
20260903011344 82 336 1.7 1.7 0.00 0.00 0.00 79 1019.7
20260903010839 83 343 1.7 1.7 0.00 0.00 0.00 78 1019.6
20260903010335 83 338 1.7 1.7 0.00 0.00 0.00 78 1019.5
20260903005833 83 340 1.7 1.7 0.00 0.00 0.00 77 1019.7